Index of /20260429/WXO-DD/model_gdps/15km/12/064
Name Last modified Size Description
Parent Directory -
20260429T12Z_MSC_GDPS_AirTemp_AGL-120m_LatLon0.15_PT064H.grib2 2026-04-29 16:03 905K
20260429T12Z_MSC_GDPS_AirTemp_AGL-2m_LatLon0.15_PT064H.grib2 2026-04-29 16:03 1.0M
20260429T12Z_MSC_GDPS_AirTemp_AGL-40m_LatLon0.15_PT064H.grib2 2026-04-29 16:03 927K
20260429T12Z_MSC_GDPS_AirTemp_AGL-80m_LatLon0.15_PT064H.grib2 2026-04-29 16:03 914K
20260429T12Z_MSC_GDPS_Albedo_Sfc_LatLon0.15_PT064H.grib2 2026-04-29 16:03 241K
20260429T12Z_MSC_GDPS_ConvectivePrecip-Accum_Sfc_LatLon0.15_PT064H.grib2 2026-04-29 16:03 3.0M
20260429T12Z_MSC_GDPS_DewPointDepression_AGL-2m_LatLon0.15_PT064H.grib2 2026-04-29 16:03 764K
20260429T12Z_MSC_GDPS_DewPoint_AGL-2m_LatLon0.15_PT064H.grib2 2026-04-29 16:03 600K
20260429T12Z_MSC_GDPS_DownwardLongwaveRadiationFlux-Accum_Sfc_LatLon0.15_PT064H.grib2 2026-04-29 16:03 886K
20260429T12Z_MSC_GDPS_DownwardShortwaveRadiationFlux-Accum_Sfc_LatLon0.15_PT064H.grib2 2026-04-29 16:03 1.1M
20260429T12Z_MSC_GDPS_FreezingRain-Accum1h_Sfc_LatLon0.15_PT064H.grib2 2026-04-29 16:03 35K
20260429T12Z_MSC_GDPS_FreezingRain-Accum_Sfc_LatLon0.15_PT064H.grib2 2026-04-29 16:03 307K
20260429T12Z_MSC_GDPS_IcePellets-Accum1h_Sfc_LatLon0.15_PT064H.grib2 2026-04-29 16:03 8.1K
20260429T12Z_MSC_GDPS_IcePellets-Accum_Sfc_LatLon0.15_PT064H.grib2 2026-04-29 16:03 60K
20260429T12Z_MSC_GDPS_LatentHeatNetFlux_Sfc_LatLon0.15_PT064H.grib2 2026-04-29 16:03 685K
20260429T12Z_MSC_GDPS_NetLongwaveRadiationFlux-Accum_Sfc_LatLon0.15_PT064H.grib2 2026-04-29 16:03 940K
20260429T12Z_MSC_GDPS_NetShortwaveRadiationFlux-Accum_Sfc_LatLon0.15_PT064H.grib2 2026-04-29 16:03 1.1M
20260429T12Z_MSC_GDPS_O3MixingRatio_Sfc_LatLon0.15_PT064H.grib2 2026-04-29 16:50 2.3M
20260429T12Z_MSC_GDPS_O3_EAtm_LatLon0.15_PT064H.grib2 2026-04-29 16:50 2.4M
20260429T12Z_MSC_GDPS_PlanetaryBoundaryLayerHeight_Sfc_LatLon0.15_PT064H.grib2 2026-04-29 16:03 2.4M
20260429T12Z_MSC_GDPS_Precip-Accum1h_Sfc_LatLon0.15_PT064H.grib2 2026-04-29 16:03 3.2M
20260429T12Z_MSC_GDPS_Precip-Accum_Sfc_LatLon0.15_PT064H.grib2 2026-04-29 16:03 5.1M
20260429T12Z_MSC_GDPS_PrecipRate_Sfc_LatLon0.15_PT064H.grib2 2026-04-29 16:03 3.1M
20260429T12Z_MSC_GDPS_Pressure_MSL_LatLon0.15_PT064H.grib2 2026-04-29 16:03 819K
20260429T12Z_MSC_GDPS_Pressure_Sfc_LatLon0.15_PT064H.grib2 2026-04-29 16:03 1.1M
20260429T12Z_MSC_GDPS_RadiativeTemp_Sfc_LatLon0.15_PT064H.grib2 2026-04-29 16:03 488K
20260429T12Z_MSC_GDPS_Rain-Accum1h_Sfc_LatLon0.15_PT064H.grib2 2026-04-29 16:03 1.6M
20260429T12Z_MSC_GDPS_Rain-Accum_Sfc_LatLon0.15_PT064H.grib2 2026-04-29 16:03 3.8M
20260429T12Z_MSC_GDPS_RelativeHumidity_AGL-2m_LatLon0.15_PT064H.grib2 2026-04-29 16:03 1.0M
20260429T12Z_MSC_GDPS_Runoff-Accum_Sfc_LatLon0.15_PT064H.grib2 2026-04-29 16:03 143K
20260429T12Z_MSC_GDPS_SensibleHeatNetFlux_Sfc_LatLon0.15_PT064H.grib2 2026-04-29 16:03 632K
20260429T12Z_MSC_GDPS_Snow-Accum1h_Sfc_LatLon0.15_PT064H.grib2 2026-04-29 16:03 1.1M
20260429T12Z_MSC_GDPS_Snow-Accum_Sfc_LatLon0.15_PT064H.grib2 2026-04-29 16:03 2.0M
20260429T12Z_MSC_GDPS_SnowDepth_Sfc_LatLon0.15_PT064H.grib2 2026-04-29 16:03 1.7M
20260429T12Z_MSC_GDPS_SoilTemp_DBS-0to10cm_LatLon0.15_PT064H.grib2 2026-04-29 16:03 507K
20260429T12Z_MSC_GDPS_SoilTemp_Sfc_LatLon0.15_PT064H.grib2 2026-04-29 16:03 578K
20260429T12Z_MSC_GDPS_SoilVolumetricWaterContent_DBS-0to10cm_LatLon0.15_PT064H.grib2 2026-04-29 16:03 586K
20260429T12Z_MSC_GDPS_SoilVolumetricWaterContent_DBS-0to1cm_LatLon0.15_PT064H.grib2 2026-04-29 16:03 652K
20260429T12Z_MSC_GDPS_SpecificHumidity_AGL-120m_LatLon0.15_PT064H.grib2 2026-04-29 16:03 1.1M
20260429T12Z_MSC_GDPS_SpecificHumidity_AGL-2m_LatLon0.15_PT064H.grib2 2026-04-29 16:03 1.2M
20260429T12Z_MSC_GDPS_SpecificHumidity_AGL-40m_LatLon0.15_PT064H.grib2 2026-04-29 16:03 1.1M
20260429T12Z_MSC_GDPS_SpecificHumidity_AGL-80m_LatLon0.15_PT064H.grib2 2026-04-29 16:03 1.1M
20260429T12Z_MSC_GDPS_SpecificHumidity_Sfc_LatLon0.15_PT064H.grib2 2026-04-29 16:03 661K
20260429T12Z_MSC_GDPS_TotalCloudCover_Sfc_LatLon0.15_PT064H.grib2 2026-04-29 16:03 824K
20260429T12Z_MSC_GDPS_UVIndex-ClearSky_Sfc_LatLon0.15_PT064H.grib2 2026-04-29 16:50 1.0M
20260429T12Z_MSC_GDPS_UVIndex_Sfc_LatLon0.15_PT064H.grib2 2026-04-29 16:50 1.5M
20260429T12Z_MSC_GDPS_UpwardLongwaveRadiationFlux_NTAtm_LatLon0.15_PT064H.grib2 2026-04-29 16:03 823K
20260429T12Z_MSC_GDPS_WindDir_AGL-10m_LatLon0.15_PT064H.grib2 2026-04-29 16:03 1.3M
20260429T12Z_MSC_GDPS_WindDir_AGL-120m_LatLon0.15_PT064H.grib2 2026-04-29 16:03 1.3M
20260429T12Z_MSC_GDPS_WindDir_AGL-40m_LatLon0.15_PT064H.grib2 2026-04-29 16:03 1.4M
20260429T12Z_MSC_GDPS_WindDir_AGL-80m_LatLon0.15_PT064H.grib2 2026-04-29 16:03 1.3M
20260429T12Z_MSC_GDPS_WindDir_IsbL-0700_LatLon0.15_PT064H.grib2 2026-04-29 16:03 1.6M
20260429T12Z_MSC_GDPS_WindGust-Max_AGL-10m_LatLon0.15_PT064H.grib2 2026-04-29 16:03 2.2M
20260429T12Z_MSC_GDPS_WindGust-Min_AGL-10m_LatLon0.15_PT064H.grib2 2026-04-29 16:03 2.1M
20260429T12Z_MSC_GDPS_WindGust_AGL-10m_LatLon0.15_PT064H.grib2 2026-04-29 16:03 2.1M
20260429T12Z_MSC_GDPS_WindSpeed_AGL-10m_LatLon0.15_PT064H.grib2 2026-04-29 16:03 1.1M
20260429T12Z_MSC_GDPS_WindSpeed_AGL-120m_LatLon0.15_PT064H.grib2 2026-04-29 16:03 1.2M
20260429T12Z_MSC_GDPS_WindSpeed_AGL-40m_LatLon0.15_PT064H.grib2 2026-04-29 16:03 1.2M
20260429T12Z_MSC_GDPS_WindSpeed_AGL-80m_LatLon0.15_PT064H.grib2 2026-04-29 16:03 1.2M
20260429T12Z_MSC_GDPS_WindSpeed_IsbL-0700_LatLon0.15_PT064H.grib2 2026-04-29 16:03 1.5M
20260429T12Z_MSC_GDPS_WindU_AGL-10m_LatLon0.15_PT064H.grib2 2026-04-29 16:03 1.3M
20260429T12Z_MSC_GDPS_WindU_AGL-120m_LatLon0.15_PT064H.grib2 2026-04-29 16:03 1.0M
20260429T12Z_MSC_GDPS_WindU_AGL-40m_LatLon0.15_PT064H.grib2 2026-04-29 16:03 968K
20260429T12Z_MSC_GDPS_WindU_AGL-80m_LatLon0.15_PT064H.grib2 2026-04-29 16:03 1.0M
20260429T12Z_MSC_GDPS_WindU_IsbL-0700_LatLon0.15_PT064H.grib2 2026-04-29 16:03 1.2M
20260429T12Z_MSC_GDPS_WindV_AGL-10m_LatLon0.15_PT064H.grib2 2026-04-29 16:03 1.3M
20260429T12Z_MSC_GDPS_WindV_AGL-120m_LatLon0.15_PT064H.grib2 2026-04-29 16:03 1.0M
20260429T12Z_MSC_GDPS_WindV_AGL-40m_LatLon0.15_PT064H.grib2 2026-04-29 16:03 964K
20260429T12Z_MSC_GDPS_WindV_AGL-80m_LatLon0.15_PT064H.grib2 2026-04-29 16:03 970K
20260429T12Z_MSC_GDPS_WindV_IsbL-0700_LatLon0.15_PT064H.grib2 2026-04-29 16:03 1.2M